Location: Lewisville
(33.0462°N, 96.9942°W)
Time: 07:08:07
(UTC-05:00)

Hubble Space Telescope - Pass Details

Date: 12 December 2022
Orbit: 527 x 530 km, 28.5° (Epoch: 28 March)

Event Time Altitude Azimuth Distance (km) Brightness Sun altitude
Exits shadow 06:12:20 17° 249° (WSW) 1,372 2.4 -14.2°
Maximum altitude 06:15:05 41° 185° (S) 764 1.6 -13.7°
Drops below altitude 10° 06:18:55 10° 114° (ESE) 1,757 4.9 -12.9°
Sets 06:21:15 0° 107° (ESE) 2,643 6.4 -12.4°
